Regional Weather Roundup
Issued by NWS

Home | Current Version | Previous Version | Graphics & Text | Print | Product List | Glossary On
Versions: 1 2 3 4 5 6 7 8 9 10 11 12 13 14 15 16 17 18 19 20 21 22 23 24 25 26 27 28 29 30 31 32 33 34 35 36 37 38 39 40 41 42 43 44 45 46 47 48 49 50
000
ASUS45 KBOU 040410
RWRCO

WEATHER ROUNDUP FOR COLORADO
NATIONAL WEATHER SERVICE DENVER/BOULDER CO
1000 PM MDT FRI JUL 03 2015

NOTE: "FAIR" INDICATES FEW OR NO CLOUDS BELOW 12000 FEET WITH NO
SIGNIFICANT WEATHER AND/OR OBSTRUCTIONS TO VISIBILITY.

COZ001>005-013-030-031-040500-
...NORTHWEST COLORADO...

CITY           SKY/WX    TMP DP  RH WIND       PRES   REMARKS
CRAIG          PTCLDY    66  46  48 S3        30.08R
HAYDEN         PTCLDY    72  37  28 E3        30.11R
MEEKER         MOCLDY    71  49  45 SE5       30.11R
MOUNT WERNER   NOT AVBL
STEAMBOAT SPGS PTCLDY    68  38  33 CALM      30.14R
WALDEN         PTCLDY    61  43  51 E9        30.27R
$$

COZ006>008-011-040500-
...WEST CENTRAL VALLEYS...

CITY           SKY/WX    TMP DP  RH WIND       PRES   REMARKS
GRAND JUNCTION PTCLDY    81  50  33 SE14G24   29.96R
MONTROSE       PTCLDY    73  47  39 SE8       30.10R
EAGLE          PTCLDY    72  48  43 E10       30.14R
RIFLE          MOCLDY    82  45  27 E13G24    30.03R
DELTA          PTCLDY    75  55  48 NE7       30.05R
NUCLA          PTCLDY    70  50  49 SE6       30.15R
$$

COZ017>023-064>068-040500-
...SOUTHWEST COLORADO...

CITY           SKY/WX    TMP DP  RH WIND       PRES   REMARKS
DURANGO        CLOUDY    63  50  62 NW5       30.22R
CORTEZ         CLEAR     69  49  48 N6        30.15R
PAGOSA SPRINGS CLOUDY    61  49  65 CALM      30.31R
TELLURIDE      MOCLDY    57  48  71 CALM      30.41R
WOLF CREEK PAS NOT AVBL
$$

COZ009-010-012-014-032>034-037-058>063-040500-
...CENTRAL COLORADO...

CITY           SKY/WX    TMP DP  RH WIND       PRES   REMARKS
ASPEN          PTCLDY    63  47  55 S6        30.24R
BUENA VISTA    PTCLDY    62  48  58 E5        30.33R
COPPER MTN     MOCLDY    55  41  58 S12G17    30.61R
BERTHOUD PASS  FAIR      43  34  70 E20G26    30.66R
COTTONWOOD PAS NOT AVBL
GUNNISON       MOCLDY    61  46  59 S6        30.31R
KREMMLING      CLEAR     70  37  30 CALM      30.24R
LEADVILLE      MOCLDY    55  45  68 S5        30.44R
MONARCH PASS   PTCLDY    46  43  87 CALM      30.72R
SALIDA         PTCLDY    65  51  59 CALM      30.37R
SUNLIGHT       MOCLDY    63  39  42 CALM      30.51R
WILKERSON PASS PTCLDY    52  37  58 CALM      30.60R
$$

COZ069>075-040500-
...SAN LUIS VALLEY/SANGRE DE CRISTO MOUNTAINS...

CITY           SKY/WX    TMP DP  RH WIND       PRES   REMARKS
ALAMOSA        CLOUDY    60  50  69 SE7       30.28S
LA VETA PASS   CLOUDY    54  39  58 MISG      30.49R
SAGUACHE       MOCLDY    61  50  67 SE7       30.33R
$$

COZ035-036-038>040-040500-
...NORTHERN COLORADO FRONT RANGE...

CITY           SKY/WX    TMP DP  RH WIND       PRES   REMARKS
DENVER INTL AP MOCLDY    72  54  53 S13       30.11R
DMNS CITY PARK   N/A     73  52  48 SE8G14    30.12R
AURORA         PTCLDY    69  56  62 S13       30.14R
FRONT RANGE AP NOT AVBL
ERIE MUNI ARPT PTCLDY    74  55  51 E7        30.09R
BOULDER MUN AP PTCLDY    72  55  56 NW6       30.11R
CENTENNIAL     MOCLDY    70  55  59 S9        30.15R
BROOMFIELD     PTCLDY    77  55  47 NW9       30.11S
FORT COLLINS   PTCLDY    73  57  56 CALM      30.11R
LONGMONT       PTCLDY    75  56  51 N5        30.11R
$$

COZ041-046-047-076>085-087-088-040500-
...PIKES PEAK/PALMER DIVIDE AND SOUTHERN FOOTHILLS...

CITY           SKY/WX    TMP DP  RH WIND       PRES   REMARKS
COLO. SPRINGS  MOCLDY    64  57  78 W5        30.21R
A. F. ACADEMY  PTCLDY    61  57  86 VRB5      30.22R
ELLICOTT       MOCLDY   N/A N/A N/A N7        30.19R
FALCON         MOCLDY    60  56  85 W9        30.26R
FORT CARSON    MOCLDY    64  55  72 W8        30.18R
LIMON          PTCLDY    66  59  78 SE7       30.13R
MONUMENT HILL  NOT AVBL
TRINIDAD       LGT RAIN  62  55  77 W17       30.15R
$$

COZ042>045-048>051-090-091-040500-
...NORTHEAST COLORADO...

CITY           SKY/WX    TMP DP  RH WIND       PRES   REMARKS
GREELEY ARPT   PTCLDY    70  61  73 E6        30.08R
AKRON          MOCLDY    69  61  75 SE12      30.09R
BURLINGTON     CLOUDY    71  58  63 SE15      30.09R
WRAY           PTCLDY    75  58  56 SE16      30.05R
STERLING       MOCLDY    73  55  53 SE9         N/A
HOLYOKE        PTCLDY    73  61  64 SE10      30.06R
FORT MORGAN    MOCLDY    67  57  70 E6        30.07R
$$

COZ086-089-092>099-040500-
...SOUTHEAST COLORADO...

CITY           SKY/WX    TMP DP  RH WIND       PRES   REMARKS
PUEBLO         MOCLDY    68  57  68 S12       30.09F
LA JUNTA       CLOUDY    80  52  37 S8        30.04R
LAMAR          PTCLDY    75  60  59 S17       30.00R
SPRINGFIELD      N/A     68  60  75 S15       30.10R
$$


USA.gov is the U.S. government's official web portal to all federal, state and local government web resources and services.